TimeMST,TemperatureF,Dew PointF,Humidity,Sea Level PressureIn,VisibilityMPH,Wind Direction,Wind SpeedMPH,Gust SpeedMPH,PrecipitationIn,Events,Conditions,WindDirDegrees,DateUTC
12:56 AM,24.1,21.0,88,30.20,10.0,South,6.9,-,N/A,,Clear,190,2013-03-08 07:56:00
1:56 AM,24.1,21.9,91,30.19,10.0,Calm,Calm,-,N/A,,Clear,0,2013-03-08 08:56:00
2:56 AM,24.1,21.9,91,30.17,10.0,NW,4.6,-,N/A,,Clear,310,2013-03-08 09:56:00
3:56 AM,21.9,19.0,89,30.17,9.0,Calm,Calm,-,N/A,,Clear,0,2013-03-08 10:56:00
4:56 AM,24.1,21.0,88,30.17,7.0,North,3.5,-,N/A,,Clear,10,2013-03-08 11:56:00
5:56 AM,21.9,19.0,89,30.19,8.0,East,3.5,-,N/A,,Mostly Cloudy,80,2013-03-08 12:56:00
6:10 AM,21.2,19.4,93,30.08,8.0,NE,4.6,-,N/A,,Overcast,40,2013-03-08 13:10:00
6:56 AM,23.0,19.9,88,30.19,7.0,NNE,8.1,-,N/A,,Overcast,30,2013-03-08 13:56:00
7:52 AM,23.0,21.2,93,30.09,6.0,Calm,Calm,-,N/A,,Overcast,0,2013-03-08 14:52:00
7:56 AM,23.0,21.0,92,30.20,6.0,ESE,4.6,-,N/A,,Overcast,120,2013-03-08 14:56:00
8:56 AM,25.0,21.9,88,30.19,6.0,ENE,6.9,-,N/A,,Overcast,60,2013-03-08 15:56:00
9:56 AM,26.1,24.1,92,30.19,6.0,ESE,8.1,-,N/A,,Overcast,120,2013-03-08 16:56:00
10:49 AM,28.4,26.6,93,30.09,6.0,SE,9.2,-,N/A,,Mostly Cloudy,130,2013-03-08 17:49:00
10:56 AM,28.9,26.1,89,30.19,7.0,ESE,9.2,-,N/A,,Overcast,120,2013-03-08 17:56:00
11:56 AM,32.0,28.0,85,30.15,9.0,East,9.2,-,N/A,,Overcast,80,2013-03-08 18:56:00
12:56 PM,32.0,28.0,85,30.12,9.0,East,9.2,-,N/A,,Overcast,90,2013-03-08 19:56:00
1:56 PM,30.9,28.0,89,30.09,8.0,ESE,10.4,-,N/A,,Overcast,110,2013-03-08 20:56:00
2:56 PM,30.9,27.0,85,30.08,5.0,East,11.5,-,N/A,,Overcast,100,2013-03-08 21:56:00
3:56 PM,30.9,27.0,85,30.06,5.0,East,12.7,-,N/A,,Mostly Cloudy,80,2013-03-08 22:56:00
4:56 PM,30.0,26.1,85,30.04,4.0,East,12.7,-,N/A,,Overcast,80,2013-03-08 23:56:00
5:56 PM,28.9,25.0,85,30.05,5.0,East,10.4,-,N/A,,Overcast,80,2013-03-09 00:56:00
6:56 PM,28.0,25.0,88,30.06,6.0,East,10.4,-,N/A,,Overcast,80,2013-03-09 01:56:00
7:56 PM,28.0,25.0,88,30.06,5.0,East,9.2,-,N/A,,Overcast,100,2013-03-09 02:56:00
8:56 PM,27.0,24.1,89,30.05,5.0,East,11.5,-,N/A,,Overcast,100,2013-03-09 03:56:00
9:56 PM,27.0,24.1,89,30.03,4.0,East,6.9,-,N/A,,Overcast,100,2013-03-09 04:56:00
10:56 PM,26.1,24.1,92,30.00,5.0,East,5.8,-,N/A,,Overcast,100,2013-03-09 05:56:00
11:14 PM,26.6,24.8,93,29.90,5.0,East,5.8,-,N/A,,Overcast,90,2013-03-09 06:14:00
11:56 PM,26.1,24.1,92,29.97,4.0,ESE,3.5,-,N/A,,Overcast,110,2013-03-09 06:56:00